"read_dt","SO2 (ppb)","flags","PMT voltage (V)","lamp voltage (V)","lamp intensity (Hz)","internal temp (C)","react chamber temp (C)","sample flow (l/min)","pres (mmHg)","SO2 bkg (ppb)","SO2 coefficient"
2014-09-19 00:00:00,1771E-3,5C000000,-0724,0826,12311,025.9,045.4,0.479,732.7,01.19,0.508
2014-09-19 00:01:00,1876E-3,5C000000,-0724,0827,12279,025.9,045.4,0.479,732.6,01.19,0.508
2014-09-19 00:02:00,1800E-3,5C000000,-0724,0826,12319,025.9,045.4,0.479,732.7,01.19,0.508
2014-09-19 00:03:00,1614E-3,5C000000,-0724,0826,12162,025.9,045.4,0.479,732.7,01.19,0.508
2014-09-19 00:04:00,1828E-3,5C000000,-0724,0825,12299,025.9,045.4,0.479,732.7,01.19,0.508
2014-09-19 00:05:00,1738E-3,5C000000,-0724,0826,12329,025.9,045.4,0.479,732.7,01.19,0.508
2014-09-19 00:06:00,1793E-3,5C000000,-0724,0825,12215,025.9,045.4,0.479,732.7,01.19,0.508
2014-09-19 00:07:00,1816E-3,5C000000,-0724,0826,12338,025.9,045.4,0.479,732.7,01.19,0.508
2014-09-19 00:08:00,1691E-3,5C000000,-0724,0825,12151,025.9,045.4,0.479,732.7,01.19,0.508
2014-09-19 00:09:00,1745E-3,5C000000,-0724,0826,12362,025.9,045.4,0.479,732.7,01.19,0.508
2014-09-19 00:10:00,1769E-3,5C000000,-0724,0827,12065,025.9,045.4,0.479,732.8,01.19,0.508
2014-09-19 00:11:00,1870E-3,5C000000,-0724,0826,12223,025.9,045.4,0.479,732.7,01.19,0.508
2014-09-19 00:12:00,1941E-3,5C000000,-0724,0827,12135,025.9,045.4,0.479,732.7,01.19,0.508
2014-09-19 00:13:00,1768E-3,5C000000,-0724,0826,12136,025.9,045.4,0.479,732.8,01.19,0.508
2014-09-19 00:14:00,1774E-3,5C000000,-0724,0826,12407,025.9,045.4,0.479,732.8,01.19,0.508
2014-09-19 00:15:00,1660E-3,5C000000,-0724,0826,12205,025.9,045.4,0.479,732.6,01.19,0.508
2014-09-19 00:16:00,1825E-3,5C000000,-0724,0826,12166,025.9,045.4,0.479,732.8,01.19,0.508
2014-09-19 00:17:00,1819E-3,5C000000,-0724,0826,12215,025.9,045.4,0.479,732.8,01.19,0.508
2014-09-19 00:18:00,1856E-3,5C000000,-0724,0826,12222,025.9,045.4,0.479,732.7,01.19,0.508
2014-09-19 00:19:00,1746E-3,5C000000,-0724,0826,12172,025.9,045.4,0.479,732.8,01.19,0.508
2014-09-19 00:20:00,1830E-3,5C000000,-0724,0826,12335,025.9,045.4,0.479,732.7,01.19,0.508
2014-09-19 00:21:00,1766E-3,5C000000,-0724,0826,12052,025.9,045.4,0.479,732.7,01.19,0.508
2014-09-19 00:22:00,1799E-3,5C000000,-0724,0826,12066,025.9,045.4,0.479,732.8,01.19,0.508
2014-09-19 00:23:00,1692E-3,5C000000,-0724,0826,12307,025.9,045.4,0.479,732.7,01.19,0.508
2014-09-19 00:24:00,1699E-3,5C000000,-0724,0827,12278,025.9,045.4,0.479,732.7,01.19,0.508
2014-09-19 00:25:00,1849E-3,5C000000,-0724,0826,12188,025.9,045.4,0.479,732.8,01.19,0.508
2014-09-19 00:26:00,1831E-3,5C000000,-0724,0827,12070,025.8,045.4,0.479,732.8,01.19,0.508
2014-09-19 00:27:00,1836E-3,5C000000,-0724,0827,12118,025.9,045.4,0.479,732.7,01.19,0.508
2014-09-19 00:28:00,1943E-3,5C000000,-0724,0826,12277,025.9,045.4,0.479,732.7,01.19,0.508
2014-09-19 00:29:00,1838E-3,5C000000,-0724,0826,12227,025.9,045.4,0.479,732.6,01.19,0.508
2014-09-19 00:30:00,1812E-3,5C000000,-0724,0826,12284,025.8,045.4,0.479,732.7,01.19,0.508
2014-09-19 00:31:00,1784E-3,5C000000,-0724,0826,12357,025.9,045.4,0.479,732.8,01.19,0.508
2014-09-19 00:32:00,1856E-3,5C000000,-0724,0825,12243,025.9,045.4,0.479,732.8,01.19,0.508
2014-09-19 00:33:00,1851E-3,5C000000,-0724,0827,12286,025.9,045.4,0.479,732.7,01.19,0.508
2014-09-19 00:34:00,1752E-3,5C000000,-0724,0826,12220,025.9,045.4,0.479,732.8,01.19,0.508
2014-09-19 00:35:00,1915E-3,5C000000,-0724,0826,12287,025.9,045.4,0.479,732.8,01.19,0.508
2014-09-19 00:36:00,1849E-3,5C000000,-0724,0826,12272,025.9,045.4,0.479,732.8,01.19,0.508
2014-09-19 00:37:00,1663E-3,5C000000,-0724,0826,12220,025.9,045.4,0.479,732.8,01.19,0.508
2014-09-19 00:38:00,1815E-3,5C000000,-0724,0826,12110,025.9,045.4,0.479,732.8,01.19,0.508
2014-09-19 00:39:00,1791E-3,5C000000,-0724,0826,12195,025.9,045.4,0.479,732.8,01.19,0.508
2014-09-19 00:40:00,1902E-3,5C000000,-0724,0826,12174,025.9,045.4,0.479,732.8,01.19,0.508
2014-09-19 00:41:00,1764E-3,5C000000,-0724,0826,12154,025.9,045.4,0.479,732.8,01.19,0.508
2014-09-19 00:42:00,1855E-3,5C000000,-0724,0826,12297,025.9,045.4,0.479,732.8,01.19,0.508
2014-09-19 00:43:00,1875E-3,5C000000,-0724,0826,12394,025.9,045.4,0.479,732.8,01.19,0.508
2014-09-19 00:44:00,1657E-3,5C000000,-0724,0826,12197,025.8,045.4,0.479,732.8,01.19,0.508
2014-09-19 00:45:00,1827E-3,5C000000,-0724,0826,12384,025.8,045.4,0.479,732.8,01.19,0.508
2014-09-19 00:46:00,1856E-3,5C000000,-0724,0826,12394,025.9,045.4,0.479,732.7,01.19,0.508
2014-09-19 00:47:00,1693E-3,5C000000,-0724,0826,12143,025.9,045.4,0.479,732.7,01.19,0.508
2014-09-19 00:48:00,1733E-3,5C000000,-0724,0826,12252,025.9,045.4,0.479,732.7,01.19,0.508
2014-09-19 00:49:00,1893E-3,5C000000,-0724,0825,12180,025.9,045.4,0.479,732.8,01.19,0.508
2014-09-19 00:50:00,1881E-3,5C000000,-0724,0826,12078,025.9,045.4,0.479,732.7,01.19,0.508
2014-09-19 00:51:00,1742E-3,5C000000,-0724,0827,12261,025.9,045.4,0.479,732.8,01.19,0.508
2014-09-19 00:52:00,1715E-3,5C000000,-0724,0826,12174,025.9,045.4,0.479,732.8,01.19,0.508
2014-09-19 00:53:00,1701E-3,5C000000,-0724,0826,12231,025.9,045.4,0.479,732.9,01.19,0.508
2014-09-19 00:54:00,1811E-3,5C000000,-0724,0826,12340,025.9,045.4,0.479,732.8,01.19,0.508
2014-09-19 00:55:00,1806E-3,5C000000,-0724,0827,12317,025.9,045.4,0.479,732.8,01.19,0.508
2014-09-19 00:56:00,1819E-3,5C000000,-0724,0826,12334,025.9,045.4,0.479,732.9,01.19,0.508
2014-09-19 00:57:00,1852E-3,5C000000,-0724,0826,12131,025.9,045.4,0.479,732.8,01.19,0.508
2014-09-19 00:58:00,1896E-3,5C000000,-0724,0826,12171,025.9,045.4,0.479,732.8,01.19,0.508
2014-09-19 00:59:00,1826E-3,5C000000,-0724,0826,12040,025.9,045.4,0.479,732.8,01.19,0.508
2014-09-19 01:00:00,1721E-3,5C000000,-0724,0826,12258,025.9,045.4,0.479,732.8,01.19,0.508
2014-09-19 01:01:00,1661E-3,5C000000,-0724,0826,12296,025.9,045.4,0.479,732.8,01.19,0.508
2014-09-19 01:02:00,1742E-3,5C000000,-0724,0826,12351,025.9,045.4,0.479,732.9,01.19,0.508
2014-09-19 01:03:00,1799E-3,5C000000,-0724,0825,12122,025.9,045.4,0.479,732.8,01.19,0.508
2014-09-19 01:04:00,1821E-3,5C000000,-0724,0826,12216,025.9,045.4,0.479,732.8,01.19,0.508
2014-09-19 01:05:00,1764E-3,5C000000,-0724,0825,12115,026.0,045.4,0.479,732.8,01.19,0.508
2014-09-19 01:06:00,1902E-3,5C000000,-0724,0826,12173,026.0,045.4,0.479,732.8,01.19,0.508
2014-09-19 01:07:00,1710E-3,5C000000,-0724,0826,12302,026.0,045.4,0.479,732.8,01.19,0.508
2014-09-19 01:08:00,1742E-3,5C000000,-0724,0826,12327,025.9,045.4,0.479,732.8,01.19,0.508
2014-09-19 01:09:00,1729E-3,5C000000,-0724,0826,12316,026.0,045.4,0.478,732.7,01.19,0.508
2014-09-19 01:10:00,1859E-3,5C000000,-0724,0825,12357,026.0,045.4,0.478,732.7,01.19,0.508
2014-09-19 01:11:00,1719E-3,5C000000,-0724,0825,12277,026.0,045.4,0.478,732.8,01.19,0.508
2014-09-19 01:12:00,1685E-3,5C000000,-0724,0826,12146,026.0,045.4,0.479,732.9,01.19,0.508
2014-09-19 01:13:00,1716E-3,5C000000,-0724,0827,12171,026.0,045.4,0.479,732.7,01.19,0.508
2014-09-19 01:14:00,1764E-3,5C000000,-0724,0827,12402,026.0,045.4,0.479,732.8,01.19,0.508
2014-09-19 01:15:00,1785E-3,5C000000,-0724,0827,12250,026.0,045.4,0.479,732.8,01.19,0.508
2014-09-19 01:16:00,1814E-3,5C000000,-0724,0826,12247,026.0,045.4,0.479,732.8,01.19,0.508
2014-09-19 01:17:00,1654E-3,5C000000,-0724,0826,12169,026.0,045.4,0.479,732.8,01.19,0.508
2014-09-19 01:18:00,1861E-3,5C000000,-0724,0827,12252,026.0,045.4,0.479,732.8,01.19,0.508
2014-09-19 01:19:00,1860E-3,5C000000,-0724,0826,12212,026.0,045.4,0.479,732.8,01.19,0.508
2014-09-19 01:20:00,1737E-3,5C000000,-0724,0827,12334,026.0,045.4,0.479,732.8,01.19,0.508
2014-09-19 01:21:00,1753E-3,5C000000,-0724,0826,12166,026.0,045.4,0.479,732.8,01.19,0.508
2014-09-19 01:22:00,1847E-3,5C000000,-0724,0826,12276,026.0,045.4,0.479,732.8,01.19,0.508
2014-09-19 01:23:00,1813E-3,5C000000,-0724,0826,12130,026.0,045.4,0.479,732.8,01.19,0.508
2014-09-19 01:24:00,1741E-3,5C000000,-0724,0826,12168,026.0,045.4,0.479,732.9,01.19,0.508
2014-09-19 01:25:00,1941E-3,5C000000,-0724,0827,12330,026.0,045.4,0.478,732.7,01.19,0.508
2014-09-19 01:26:00,1781E-3,5C000000,-0724,0826,11938,026.0,045.4,0.478,732.9,01.19,0.508
2014-09-19 01:27:00,1743E-3,5C000000,-0724,0826,12389,025.9,045.4,0.479,732.9,01.19,0.508
2014-09-19 01:28:00,1634E-3,5C000000,-0724,0826,12159,026.0,045.4,0.479,732.9,01.19,0.508
2014-09-19 01:29:00,1829E-3,5C000000,-0724,0825,12205,026.0,045.4,0.479,733.0,01.19,0.508
2014-09-19 01:30:00,1720E-3,5C000000,-0724,0827,12292,026.0,045.4,0.479,732.9,01.19,0.508
2014-09-19 01:31:00,1867E-3,5C000000,-0724,0826,12062,025.9,045.4,0.479,733.0,01.19,0.508
2014-09-19 01:32:00,1822E-3,5C000000,-0724,0826,12381,026.0,045.4,0.479,732.9,01.19,0.508
2014-09-19 01:33:00,1815E-3,5C000000,-0724,0826,12051,026.0,045.4,0.479,733.0,01.19,0.508
2014-09-19 01:34:00,1798E-3,5C000000,-0724,0826,12337,026.0,045.4,0.479,733.0,01.19,0.508
2014-09-19 01:35:00,1878E-3,5C000000,-0724,0826,12271,026.0,045.4,0.479,732.9,01.19,0.508
2014-09-19 01:36:00,1710E-3,5C000000,-0724,0825,12139,025.9,045.4,0.479,732.9,01.19,0.508
2014-09-19 01:37:00,1654E-3,5C000000,-0724,0826,12120,025.9,045.4,0.479,732.9,01.19,0.508
2014-09-19 01:38:00,1814E-3,5C000000,-0724,0824,12243,026.0,045.4,0.479,732.9,01.19,0.508
2014-09-19 01:39:00,1884E-3,5C000000,-0724,0825,12099,025.9,045.4,0.478,733.0,01.19,0.508
2014-09-19 01:40:00,1800E-3,5C000000,-0724,0825,12211,025.9,045.4,0.478,732.9,01.19,0.508
2014-09-19 01:41:00,1688E-3,5C000000,-0724,0825,12265,026.0,045.4,0.479,732.9,01.19,0.508
2014-09-19 01:42:00,1878E-3,5C000000,-0724,0826,12343,026.0,045.4,0.478,732.7,01.19,0.508
2014-09-19 01:43:00,1678E-3,5C000000,-0724,0825,12301,026.0,045.4,0.479,732.8,01.19,0.508
2014-09-19 01:44:00,1814E-3,5C000000,-0724,0825,12249,026.0,045.4,0.479,732.8,01.19,0.508
2014-09-19 01:45:00,1740E-3,5C000000,-0724,0825,12242,026.0,045.4,0.479,732.7,01.19,0.508
2014-09-19 01:46:00,1919E-3,5C000000,-0724,0825,12219,026.0,045.4,0.479,732.8,01.19,0.508
2014-09-19 01:47:00,1708E-3,5C000000,-0724,0825,12347,026.0,045.4,0.479,732.9,01.19,0.508
2014-09-19 01:48:00,1947E-3,5C000000,-0724,0826,12235,026.0,045.4,0.479,732.8,01.19,0.508
2014-09-19 01:49:00,1727E-3,5C000000,-0724,0826,12196,026.0,045.4,0.479,732.9,01.19,0.508
2014-09-19 01:50:00,1834E-3,5C000000,-0724,0826,12264,026.0,045.4,0.479,732.8,01.19,0.508
2014-09-19 01:51:00,1811E-3,5C000000,-0724,0826,12225,026.0,045.4,0.479,732.9,01.19,0.508
2014-09-19 01:52:00,1678E-3,5C000000,-0724,0825,12128,026.0,045.4,0.478,732.8,01.19,0.508
2014-09-19 01:53:00,1734E-3,5C000000,-0724,0825,12200,026.0,045.4,0.478,733.0,01.19,0.508
2014-09-19 01:54:00,1800E-3,5C000000,-0724,0825,12203,026.0,045.4,0.478,732.9,01.19,0.508
2014-09-19 01:55:00,1820E-3,5C000000,-0724,0826,12109,026.0,045.4,0.478,732.9,01.19,0.508
2014-09-19 01:56:00,1817E-3,5C000000,-0724,0826,12276,025.9,045.4,0.479,733.0,01.19,0.508
2014-09-19 01:57:00,1617E-3,5C000000,-0724,0825,12472,025.9,045.4,0.479,733.0,01.19,0.508
2014-09-19 01:58:00,1779E-3,5C000000,-0724,0826,12266,025.9,045.4,0.479,732.9,01.19,0.508
2014-09-19 01:59:00,1787E-3,5C000000,-0724,0826,12314,025.9,045.4,0.479,733.0,01.19,0.508
2014-09-19 02:00:00,1755E-3,5C000000,-0724,0826,12167,025.9,045.4,0.479,733.0,01.19,0.508
2014-09-19 02:01:00,1907E-3,5C000000,-0724,0826,12244,025.9,045.4,0.479,732.9,01.19,0.508
2014-09-19 02:02:00,1886E-3,5C000000,-0724,0825,12343,025.9,045.4,0.479,733.0,01.19,0.508
2014-09-19 02:03:00,1860E-3,5C000000,-0724,0827,12214,025.9,045.4,0.479,733.0,01.19,0.508
2014-09-19 02:04:00,1758E-3,5C000000,-0724,0826,12235,025.9,045.4,0.479,732.9,01.19,0.508
2014-09-19 02:05:00,1607E-3,5C000000,-0724,0826,12352,025.9,045.4,0.479,732.9,01.19,0.508
2014-09-19 02:06:00,1667E-3,5C000000,-0724,0826,12301,025.9,045.4,0.479,732.9,01.19,0.508
2014-09-19 02:07:00,1775E-3,5C000000,-0724,0827,12306,025.9,045.4,0.479,733.0,01.19,0.508
2014-09-19 02:08:00,1729E-3,5C000000,-0724,0826,12149,025.9,045.4,0.479,732.9,01.19,0.508
2014-09-19 02:09:00,1836E-3,5C000000,-0724,0826,12363,025.9,045.4,0.479,732.9,01.19,0.508
2014-09-19 02:10:00,1759E-3,5C000000,-0724,0825,12279,025.9,045.4,0.479,732.9,01.19,0.508
2014-09-19 02:11:00,1781E-3,5C000000,-0724,0826,12270,025.9,045.4,0.479,732.9,01.19,0.508
2014-09-19 02:12:00,1789E-3,5C000000,-0724,0826,12151,025.9,045.4,0.479,732.9,01.19,0.508
2014-09-19 02:13:00,1738E-3,5C000000,-0724,0826,12106,025.9,045.4,0.479,732.8,01.19,0.508
2014-09-19 02:14:00,1778E-3,5C000000,-0724,0826,12314,025.9,045.4,0.479,732.8,01.19,0.508
2014-09-19 02:15:00,1851E-3,5C000000,-0724,0826,12303,025.9,045.4,0.479,732.8,01.19,0.508
2014-09-19 02:16:00,1797E-3,5C000000,-0724,0826,12268,025.8,045.4,0.479,732.9,01.19,0.508
2014-09-19 02:17:00,1818E-3,5C000000,-0724,0827,12286,025.9,045.4,0.479,732.8,01.19,0.508
2014-09-19 02:18:00,1733E-3,5C000000,-0724,0826,12308,025.9,045.4,0.479,732.9,01.19,0.508
2014-09-19 02:19:00,1776E-3,5C000000,-0724,0827,12253,025.8,045.4,0.479,732.9,01.19,0.508
2014-09-19 02:20:00,1736E-3,5C000000,-0724,0826,12103,025.8,045.4,0.479,732.9,01.19,0.508
2014-09-19 02:21:00,1789E-3,5C000000,-0724,0826,12279,025.9,045.4,0.479,732.8,01.19,0.508
2014-09-19 02:22:00,1888E-3,5C000000,-0724,0826,12200,025.9,045.4,0.479,732.8,01.19,0.508
2014-09-19 02:23:00,1730E-3,5C000000,-0724,0826,12389,025.9,045.4,0.479,732.9,01.19,0.508
2014-09-19 02:24:00,1789E-3,5C000000,-0724,0826,12256,025.9,045.4,0.479,732.9,01.19,0.508
2014-09-19 02:25:00,1944E-3,5C000000,-0724,0825,12212,025.8,045.4,0.479,732.9,01.19,0.508
2014-09-19 02:26:00,1957E-3,5C000000,-0724,0826,12276,025.8,045.4,0.479,732.9,01.19,0.508
2014-09-19 02:27:00,1643E-3,5C000000,-0724,0826,12275,025.9,045.4,0.479,733.0,01.19,0.508
2014-09-19 02:28:00,1744E-3,5C000000,-0724,0826,12232,025.9,045.4,0.479,732.8,01.19,0.508
2014-09-19 02:29:00,1781E-3,5C000000,-0724,0826,12000,025.9,045.4,0.479,732.9,01.19,0.508
2014-09-19 02:30:00,1909E-3,5C000000,-0724,0826,12126,025.8,045.4,0.479,732.8,01.19,0.508
2014-09-19 02:31:00,1848E-3,5C000000,-0724,0826,12446,025.9,045.4,0.479,732.9,01.19,0.508
2014-09-19 02:32:00,1771E-3,5C000000,-0724,0826,12299,025.9,045.4,0.479,732.9,01.19,0.508
2014-09-19 02:33:00,1752E-3,5C000000,-0724,0826,12262,025.8,045.4,0.479,732.9,01.19,0.508
2014-09-19 02:34:00,1684E-3,5C000000,-0724,0826,12223,025.8,045.4,0.479,732.9,01.19,0.508
2014-09-19 02:35:00,1827E-3,5C000000,-0724,0826,12169,025.8,045.4,0.480,732.8,01.19,0.508
2014-09-19 02:36:00,1734E-3,5C000000,-0724,0826,12308,025.9,045.4,0.480,732.8,01.19,0.508
2014-09-19 02:37:00,1799E-3,5C000000,-0724,0826,12301,025.9,045.4,0.480,732.8,01.19,0.508
2014-09-19 02:38:00,1817E-3,5C000000,-0724,0826,12314,025.9,045.4,0.480,732.9,01.19,0.508
2014-09-19 02:39:00,1765E-3,5C000000,-0724,0826,12279,025.8,045.4,0.480,732.8,01.19,0.508
2014-09-19 02:40:00,1805E-3,5C000000,-0724,0825,12306,025.9,045.4,0.479,732.8,01.19,0.508
2014-09-19 02:41:00,1810E-3,5C000000,-0724,0826,12308,025.9,045.4,0.479,732.7,01.19,0.508
2014-09-19 02:42:00,1839E-3,5C000000,-0724,0826,12338,025.9,045.4,0.479,732.8,01.19,0.508
2014-09-19 02:43:00,1800E-3,5C000000,-0724,0826,12259,025.9,045.4,0.480,732.8,01.19,0.508
2014-09-19 02:44:00,1759E-3,5C000000,-0724,0826,12193,025.9,045.4,0.480,732.7,01.19,0.508
2014-09-19 02:45:00,1854E-3,5C000000,-0724,0826,12237,025.9,045.4,0.480,732.8,01.19,0.508
2014-09-19 02:46:00,1870E-3,5C000000,-0724,0826,12214,025.9,045.4,0.480,732.8,01.19,0.508
2014-09-19 02:47:00,1868E-3,5C000000,-0724,0825,12232,025.9,045.4,0.479,732.7,01.19,0.508
2014-09-19 02:48:00,1862E-3,5C000000,-0724,0826,12238,025.9,045.4,0.479,732.8,01.19,0.508
2014-09-19 02:49:00,1718E-3,5C000000,-0724,0826,12109,025.9,045.4,0.480,732.8,01.19,0.508
2014-09-19 02:50:00,1730E-3,5C000000,-0724,0826,12076,025.9,045.4,0.480,732.8,01.19,0.508
2014-09-19 02:51:00,1779E-3,5C000000,-0724,0825,12207,025.9,045.4,0.479,732.8,01.19,0.508
2014-09-19 02:52:00,1630E-3,5C000000,-0724,0826,12194,025.9,045.4,0.479,732.8,01.19,0.508
2014-09-19 02:53:00,1707E-3,5C000000,-0724,0826,11971,025.9,045.4,0.480,732.9,01.19,0.508
2014-09-19 02:54:00,1788E-3,5C000000,-0724,0827,12166,025.9,045.4,0.480,732.8,01.19,0.508
2014-09-19 02:55:00,1697E-3,5C000000,-0724,0826,12274,025.9,045.4,0.480,732.9,01.19,0.508
2014-09-19 02:56:00,1827E-3,5C000000,-0724,0826,12294,025.9,045.4,0.479,732.8,01.19,0.508
2014-09-19 02:57:00,1823E-3,5C000000,-0724,0826,12113,026.0,045.4,0.480,732.9,01.19,0.508
2014-09-19 02:58:00,1695E-3,5C000000,-0724,0826,12298,026.0,045.4,0.480,732.8,01.19,0.508
2014-09-19 02:59:00,1683E-3,5C000000,-0724,0827,12320,026.0,045.4,0.480,732.7,01.19,0.508
2014-09-19 03:00:00,1880E-3,5C000000,-0724,0826,12249,026.0,045.4,0.479,732.8,01.19,0.508
2014-09-19 03:01:00,1843E-3,5C000000,-0724,0827,12121,026.0,045.4,0.480,732.8,01.19,0.508
2014-09-19 03:02:00,1741E-3,5C000000,-0724,0827,12283,026.0,045.4,0.480,732.8,01.19,0.508
2014-09-19 03:03:00,1770E-3,5C000000,-0724,0826,12367,026.0,045.4,0.479,732.8,01.19,0.508
2014-09-19 03:04:00,1871E-3,5C000000,-0724,0826,12212,026.0,045.4,0.480,732.8,01.19,0.508
2014-09-19 03:05:00,1762E-3,5C000000,-0724,0826,12322,026.1,045.4,0.480,732.7,01.19,0.508
2014-09-19 03:06:00,1812E-3,5C000000,-0724,0826,12364,026.0,045.4,0.479,732.8,01.19,0.508
2014-09-19 03:07:00,1700E-3,5C000000,-0724,0826,12290,026.1,045.4,0.480,732.8,01.19,0.508
2014-09-19 03:08:00,1990E-3,5C000000,-0724,0826,12341,026.1,045.4,0.480,732.8,01.19,0.508
2014-09-19 03:09:00,1759E-3,5C000000,-0724,0826,12242,026.1,045.4,0.479,732.7,01.19,0.508
2014-09-19 03:10:00,1768E-3,5C000000,-0724,0827,12161,026.1,045.4,0.480,732.8,01.19,0.508
2014-09-19 03:11:00,1860E-3,5C000000,-0724,0826,12230,026.1,045.4,0.480,732.8,01.19,0.508
2014-09-19 03:12:00,1651E-3,5C000000,-0724,0826,12127,026.1,045.4,0.479,732.8,01.19,0.508
2014-09-19 03:13:00,1776E-3,5C000000,-0724,0825,12259,026.2,045.4,0.480,732.8,01.19,0.508
2014-09-19 03:14:00,1744E-3,5C000000,-0724,0827,12188,026.1,045.4,0.480,732.9,01.19,0.508
2014-09-19 03:15:00,1797E-3,5C000000,-0724,0825,12329,026.2,045.4,0.479,732.7,01.19,0.508
2014-09-19 03:16:00,1769E-3,5C000000,-0724,0826,12349,026.2,045.4,0.480,732.9,01.19,0.508
2014-09-19 03:17:00,1775E-3,5C000000,-0724,0826,12365,026.2,045.4,0.479,732.9,01.19,0.508
2014-09-19 03:18:00,1815E-3,5C000000,-0724,0826,12287,026.1,045.4,0.479,732.8,01.19,0.508
2014-09-19 03:19:00,1845E-3,5C000000,-0724,0827,12292,026.2,045.4,0.480,732.7,01.19,0.508
2014-09-19 03:20:00,1838E-3,5C000000,-0724,0827,12366,026.2,045.4,0.479,732.8,01.19,0.508
2014-09-19 03:21:00,1652E-3,5C000000,-0724,0826,12061,026.2,045.4,0.480,732.8,01.19,0.508
2014-09-19 03:22:00,1866E-3,5C000000,-0724,0826,12100,026.2,045.4,0.479,732.8,01.19,0.508
2014-09-19 03:23:00,1718E-3,5C000000,-0724,0826,12195,026.2,045.4,0.479,732.8,01.19,0.508
2014-09-19 03:24:00,1706E-3,5C000000,-0724,0826,12340,026.2,045.4,0.480,732.8,01.19,0.508
2014-09-19 03:25:00,1911E-3,5C000000,-0724,0826,12200,026.2,045.4,0.479,732.8,01.19,0.508
2014-09-19 03:26:00,1837E-3,5C000000,-0724,0826,12172,026.2,045.4,0.480,732.9,01.19,0.508
2014-09-19 03:27:00,1679E-3,5C000000,-0724,0827,12327,026.2,045.4,0.479,732.9,01.19,0.508
2014-09-19 03:28:00,1731E-3,5C000000,-0724,0826,12231,026.2,045.4,0.479,732.9,01.19,0.508
2014-09-19 03:29:00,1771E-3,5C000000,-0724,0827,12188,026.2,045.4,0.480,732.9,01.19,0.508
2014-09-19 03:30:00,1862E-3,5C000000,-0724,0826,12263,026.2,045.4,0.479,732.8,01.19,0.508
2014-09-19 03:31:00,1837E-3,5C000000,-0724,0826,12299,026.2,045.4,0.480,733.0,01.19,0.508
2014-09-19 03:32:00,1859E-3,5C000000,-0724,0826,12097,026.3,045.4,0.480,732.9,01.19,0.508
2014-09-19 03:33:00,1840E-3,5C000000,-0724,0826,12343,026.2,045.4,0.479,732.9,01.19,0.508
2014-09-19 03:34:00,1802E-3,5C000000,-0724,0826,12397,026.2,045.4,0.480,732.8,01.19,0.508
2014-09-19 03:35:00,1767E-3,5C000000,-0724,0826,12138,026.2,045.4,0.479,732.8,01.19,0.508
2014-09-19 03:36:00,1708E-3,5C000000,-0724,0826,12045,026.2,045.4,0.480,732.8,01.19,0.508
2014-09-19 03:37:00,1794E-3,5C000000,-0724,0826,12327,026.2,045.4,0.479,732.9,01.19,0.508
2014-09-19 03:38:00,1751E-3,5C000000,-0724,0826,12295,026.2,045.4,0.479,732.9,01.19,0.508
2014-09-19 03:39:00,1777E-3,5C000000,-0724,0827,12242,026.3,045.4,0.480,732.8,01.19,0.508
2014-09-19 03:40:00,1831E-3,5C000000,-0724,0826,12296,026.2,045.4,0.479,732.8,01.19,0.508
2014-09-19 03:41:00,1856E-3,5C000000,-0724,0826,12064,026.2,045.4,0.480,732.9,01.19,0.508
2014-09-19 03:42:00,1793E-3,5C000000,-0724,0826,12067,026.2,045.4,0.479,732.9,01.19,0.508
2014-09-19 03:43:00,1765E-3,5C000000,-0724,0827,12244,026.3,045.4,0.479,732.9,01.19,0.508
2014-09-19 03:44:00,1761E-3,5C000000,-0724,0827,12258,026.2,045.4,0.480,732.9,01.19,0.508
2014-09-19 03:45:00,1688E-3,5C000000,-0724,0827,12164,026.2,045.4,0.479,733.0,01.19,0.508
2014-09-19 03:46:00,1791E-3,5C000000,-0724,0826,12258,026.2,045.4,0.480,732.7,01.19,0.508
2014-09-19 03:47:00,1878E-3,5C000000,-0724,0826,12158,026.2,045.4,0.479,732.8,01.19,0.508
2014-09-19 03:48:00,1817E-3,5C000000,-0724,0826,12082,026.3,045.4,0.480,732.8,01.19,0.508
2014-09-19 03:49:00,1759E-3,5C000000,-0724,0827,12175,026.3,045.4,0.480,732.8,01.19,0.508
2014-09-19 03:50:00,1727E-3,5C000000,-0724,0827,12089,026.3,045.4,0.479,732.8,01.19,0.508
2014-09-19 03:51:00,1769E-3,5C000000,-0724,0826,12319,026.3,045.4,0.480,732.8,01.19,0.508
2014-09-19 03:52:00,1692E-3,5C000000,-0724,0826,12271,026.3,045.4,0.479,732.8,01.19,0.508
2014-09-19 03:53:00,1876E-3,5C000000,-0724,0826,12263,026.3,045.4,0.480,732.9,01.19,0.508
2014-09-19 03:54:00,1779E-3,5C000000,-0724,0827,12366,026.3,045.4,0.479,732.8,01.19,0.508
2014-09-19 03:55:00,1902E-3,5C000000,-0724,0827,12107,026.3,045.4,0.480,733.0,01.19,0.508
2014-09-19 03:56:00,1783E-3,5C000000,-0724,0825,12244,026.3,045.4,0.480,732.9,01.19,0.508
2014-09-19 03:57:00,1781E-3,5C000000,-0724,0826,12206,026.3,045.4,0.479,732.9,01.19,0.508
2014-09-19 03:58:00,1703E-3,5C000000,-0724,0827,12455,026.4,045.4,0.480,733.0,01.19,0.508
2014-09-19 03:59:00,1915E-3,5C000000,-0724,0826,12327,026.3,045.4,0.479,732.9,01.19,0.508
2014-09-19 04:00:00,1796E-3,5C000000,-0724,0827,12354,026.4,045.4,0.480,732.9,01.19,0.508
2014-09-19 04:01:00,1848E-3,5C000000,-0724,0827,12307,026.4,045.4,0.479,732.9,01.19,0.508
2014-09-19 04:02:00,1830E-3,5C000000,-0724,0826,12238,026.4,045.4,0.480,733.0,01.19,0.508
2014-09-19 04:03:00,1779E-3,5C000000,-0724,0826,12510,026.4,045.4,0.480,733.0,01.19,0.508
2014-09-19 04:04:00,1798E-3,5C000000,-0724,0827,12355,026.4,045.4,0.479,732.9,01.19,0.508
2014-09-19 04:05:00,1739E-3,5C000000,-0724,0826,12275,026.4,045.4,0.480,733.0,01.19,0.508
2014-09-19 04:06:00,1643E-3,5C000000,-0724,0827,12126,026.4,045.4,0.479,733.0,01.19,0.508
2014-09-19 04:07:00,1821E-3,5C000000,-0724,0825,12310,026.4,045.4,0.480,733.0,01.19,0.508
2014-09-19 04:08:00,1864E-3,5C000000,-0724,0827,12333,026.4,045.4,0.479,732.9,01.19,0.508
2014-09-19 04:09:00,1785E-3,5C000000,-0724,0827,11861,026.4,045.4,0.479,733.0,01.19,0.508
2014-09-19 04:10:00,1899E-3,5C000000,-0724,0826,12240,026.4,045.4,0.480,733.1,01.19,0.508
2014-09-19 04:11:00,1735E-3,5C000000,-0724,0828,12347,026.4,045.4,0.479,732.9,01.19,0.508
2014-09-19 04:12:00,1919E-3,5C000000,-0724,0826,12203,026.4,045.4,0.480,733.2,01.19,0.508
2014-09-19 04:13:00,1773E-3,5C000000,-0724,0827,12233,026.4,045.4,0.479,733.1,01.19,0.508
2014-09-19 04:14:00,1825E-3,5C000000,-0724,0827,12071,026.4,045.4,0.480,733.1,01.19,0.508
2014-09-19 04:15:00,1821E-3,5C000000,-0724,0827,12022,026.5,045.5,0.479,733.0,01.19,0.508
2014-09-19 04:16:00,1758E-3,5C000000,-0724,0827,12330,026.4,045.4,0.479,733.1,01.19,0.508
2014-09-19 04:17:00,1711E-3,5C000000,-0724,0826,12223,026.4,045.4,0.480,733.0,01.19,0.508
2014-09-19 04:18:00,1748E-3,5C000000,-0724,0826,12247,026.5,045.4,0.479,733.0,01.19,0.508
2014-09-19 04:19:00,1681E-3,5C000000,-0724,0826,12320,026.5,045.4,0.480,733.0,01.19,0.508
2014-09-19 04:20:00,1820E-3,5C000000,-0724,0827,12372,026.5,045.4,0.479,732.9,01.19,0.508